Weather Service Report


669 
ASUS42 KCAE 301810
RWRCAE
REGIONAL WEATHER ROUNDUP
NATIONAL WEATHER SERVICE COLUMBIA SC
200 PM EDT TUE SEP 30 2014

NOTE: "FAIR" INDICATES FEW OR NO CLOUDS BELOW 12,000 FEET WITH NO
SIGNIFICANT WEATHER AND/OR OBSTRUCTIONS TO VISIBILITY.

NOT ALL STATIONS ARE QUALITY CONTROLLED BY THE NATIONAL 
WEATHER SERVICE. USE DATA WITH CAUTION...ESPECIALLY 
DEWPOINT OBSERVATIONS.

SCZ001>056-GAZ040-063>065-077-301900-
...UPSTATE SOUTH CAROLINA...
  
CITY           SKY/WX    TMP DP  RH WIND       PRES   REMARKS
ANDERSON       SUNNY     80  62  54 NE5       29.92F                  
6HR MIN TEMP:  61; 6HR MAX TEMP:  80;                                

LIBERTY        FAIR      81  64  55 MISG      29.92F                  
6HR MIN TEMP:  55; 6HR MAX TEMP:  81;                                

SPARTANBURG    FAIR      82  59  44 E5        29.90F                  
CLEMSON        SUNNY     82  58  43 VRB3      29.93F                  
6HR MIN TEMP:  62; 6HR MAX TEMP:  82;                                

GREENVILLE     SUNNY     81  59  47 N6        29.93F                  
6HR MIN TEMP:  59; 6HR MAX TEMP:  81; 6HR PCP: TRACE;                

GREENWOOD      SUNNY     78  62  57 N6        29.93F                  
6HR MIN TEMP:  63; 6HR MAX TEMP:  78;                                

GREER          MOSUNNY   80  60  50 E6        29.90F                  
6HR MIN TEMP:  57; 6HR MAX TEMP:  81;                                

ROCK HILL      SUNNY     79  63  57 N6        29.91F                  
6HR MIN TEMP:  57; 6HR MAX TEMP:  80;                                

CHESTER        FAIR     N/A N/A N/A NE6       29.95F                  
LAURENS        FAIR      79  54  41 NE5       29.92F                  


...CENTRAL SOUTH CAROLINA...
  
CITY           SKY/WX    TMP DP  RH WIND       PRES   REMARKS
COLUMBIA APT   MOSUNNY   82  61  48 NW5       29.88F                  
6HR MIN TEMP:  65; 6HR MAX TEMP:  82;                                

COLUMBIA OWENS SUNNY     83  60  45 VRB6      29.89F                  
6HR MIN TEMP:  62; 6HR MAX TEMP:  83;                                

DARLINGTON     SUNNY     81  63  54 N7        29.88F                  
6HR MIN TEMP:  63; 6HR MAX TEMP:  81;                                

FLORENCE       PTSUNNY   79  64  60 N7        29.87F                  
6HR MIN TEMP:  62; 6HR MAX TEMP:  80;                                

MCENTIRE ANGB  MOSUNNY   81  61  51 VRB7      29.88F                  
6HR MIN TEMP:  62; 6HR MAX TEMP:  81;                                

ORANGEBURG     SUNNY     80  59  48 N5        29.89F                  
6HR MIN TEMP:  63; 6HR MAX TEMP:  80;                                

SUMTER SHAW    MOSUNNY   80  60  50 VRB3      29.86F                  
6HR MIN TEMP:  62; 6HR MAX TEMP:  81;                                

NEWBERRY       FAIR      79  59  50 CALM      29.93F                  
AIKEN          FAIR      79  64  61 N5        29.93F                  
BARNWELL       FAIR      79  61  53 N5        29.90F                  
MANNING        FAIR      81  64  57 E5        29.88F                  
CAMDEN         FAIR      79  59  50 CALM      29.89F                  
LANCASTER      FAIR      77  64  65 NW6       29.90F                  
WINNSBORO      FAIR      79  61  53 CALM      29.90F                  


...EASTERN AND COASTAL SOUTH CAROLINA...
  
CITY           SKY/WX    TMP DP  RH WIND       PRES   REMARKS
N MYRTLE BCH   SUNNY     81  62  52 NE9       29.85F                  
6HR MIN TEMP:  64; 6HR MAX TEMP:  81;                                

CONWAY         FAIR      79  63  57 N5        29.86F                  
HARTSVILLE     FAIR      81  41  24 CALM      29.89F                  
FLORENCE       PTSUNNY   79  64  60 N7        29.87F                  
6HR MIN TEMP:  62; 6HR MAX TEMP:  80;                                

DARLINGTON     SUNNY     81  63  54 N7        29.88F                  
6HR MIN TEMP:  63; 6HR MAX TEMP:  81;                                

CHARLESTON APT MOSUNNY   81  62  52 VRB5      29.87F                  
6HR MIN TEMP:  66; 6HR MAX TEMP:  81;                                

MOUNT PLEASANT FAIR      79  63  57 N6        29.86F                  
WALTERBORO     CLEAR     81  55  41 N6        29.88F                  
BEAUFORT       MOSUNNY   81  64  56 NE8       29.87F                  
6HR MIN TEMP:  65; 6HR MAX TEMP:  81;                                



...EASTERN GEORGIA...
  
CITY           SKY/WX    TMP DP  RH WIND       PRES   REMARKS
AUGUSTA BUSH F SUNNY     80  59  48 CALM      29.89F                  
6HR MIN TEMP:  63; 6HR MAX TEMP:  82;                                

AUGUSTA DANIEL SUNNY     80  62  54 E6        29.91F                  
6HR MIN TEMP:  64; 6HR MAX TEMP:  80;                                

THOMSON        SUNNY     78  69  72 NW5       29.96F                  
6HR MIN TEMP:  66; 6HR MAX TEMP:  79;                                

WASHINGTON     PTSUNNY   81  73  78 CALM      29.92F                  
CLAXTON        FAIR      81  68  65 CALM      29.89F                  
SYLVANIA       CLEAR     81  67  62 N6        29.89F                  
6HR MIN TEMP:  67; 6HR MAX TEMP:  82;                                

STATESBORO     MOSUNNY   78  65  64 N5        29.89F                  
6HR MIN TEMP:  64; 6HR MAX TEMP:  79;                                

SAVANNAH       PTSUNNY   80  65  59 N7        29.88F                  
6HR MIN TEMP:  67; 6HR MAX TEMP:  80;                                



...SOUTHERN NORTH CAROLINA...
  
CITY           SKY/WX    TMP DP  RH WIND       PRES   REMARKS
CHARLOTTE      MOSUNNY   80  59  48 W3        29.91F                  
6HR MIN TEMP:  60; 6HR MAX TEMP:  80;                                

MONROE         MOSUNNY   80  62  54 N7        29.89F                  
6HR MIN TEMP:  58; 6HR MAX TEMP:  80;                                

WADESBORO      CLEAR     79  63  58 N5        29.88F                  
6HR MIN TEMP:  62; 6HR MAX TEMP:  79;                                

ROCKINGHAM     CLEAR     77  62  59 NW3       29.88F                  
6HR MIN TEMP:  60; 6HR MAX TEMP:  77;                                

RUTHERFORDTON  MOSUNNY   80  61  50 CALM      29.92F                  
6HR MIN TEMP:  58; 6HR MAX TEMP:  81;                                

ASHEVILLE      SUNNY     77  53  43 N9G21     29.97F                  
6HR MIN TEMP:  59; 6HR MAX TEMP:  77;                                


$$

Return to Home page


Western Regional Climate Center, wrcc@dri.edu